[[{"header":{"parameterUnit":"m.s-1","parameterCategory":1,"la1":30.2991,"la2":30.254,"lo1":-89.0895,"lo2":-89.0444,"dy":0.0017,"dx":0.0017,"nx":28,"ny":28,"refTime":"2024-06-01T09:00:00:Z","depth":0,"parameterNumber":2,"parameterNumberName":"U-component_of_WINDS"},"data":[0,0,0,0,0,0,0,0,0,0,0,0,0,0,0,0,0,0,0,0,0,0,0,0,0,0,0,0,0,0,0,0,0,0,0,0,0,0,0,0,0,0,0,0,0,0,0,0,0,0,0,0,0,0,0,0,0,0,0.4304,0.4305,0,0.4371,0.4371,0.4372,0.4365,0.4364,0.4362,0.4361,0.4432,0.4435,0.4438,0,0,0,0,0,0,0,0,0,0,0,0,0,0.4173,0.4176,0.4304,0.4305,0.4306,0.437,0.4371,0.4372,0.4365,0.4363,0.4362,0.4361,0.4431,0.4434,0.4438,0,0,0,0,0,0,0,0,0,0,0,0,0,0.4234,0.4176,0.4304,0.431,0.4311,0.437,0.4371,0.4373,0.4365,0.4363,0.4362,0.436,0.443,0.4434,0.4438,0.4497,0,0,0.4451,0.4453,0,0,0,0,0,0,0,0,0.423,0.4239,0.4308,0.431,0.4311,0.4358,0.4351,0.4414,0.4365,0.4345,0.4361,0.436,0.4409,0.4415,0.4431,0.45,0.4503,0.4452,0.4454,0.4456,0.4458,0,0,0,0,0,0,0,0.4226,0.4236,0.4331,0.4309,0.4311,0.431,0.4317,0.4363,0.4385,0.4346,0.4346,0.4354,0.4409,0.4427,0.4432,0.4504,0.4452,0.4456,0.4458,0.446,0.4624,0.4625,0,0,0,0,0,0,0.422,0.4232,0.4329,0.4333,0.4266,0.4313,0.4321,0.4344,0.4384,0.4389,0.4355,0.4353,0.442,0.4427,0.4435,0.4505,0.4456,0.446,0.4463,0.4622,0.4624,0.4626,0,0,0,0,0,0,0.4217,0.4229,0.4326,0.4282,0.4295,0.4317,0.4344,0.4347,0.4364,0.4391,0.4395,0.4369,0.4419,0.4429,0.4481,0.4507,0.4462,0.4466,0.462,0.4623,0.4625,0.4646,0,0,0,0,0,0,0.4214,0.4228,0.425,0.4283,0.4297,0.4371,0.4345,0.4349,0.4371,0.4369,0.4405,0.4409,0.4418,0.4475,0.4485,0.4512,0.447,0.4618,0.4621,0.4624,0.4643,0.4649,0.4654,0,0,0,0,0,0.4209,0.4254,0.4251,0.4263,0.4325,0.4372,0.438,0.4389,0.4373,0.4396,0.4413,0.4408,0.4503,0.448,0.4492,0.4521,0.4616,0.462,0.4624,0.4641,0.4648,0.4654,0,0,0,0,0,0,0.4225,0.4259,0.4256,0.4313,0.4339,0.4371,0.44,0.4397,0.443,0.4427,0.4437,0.4445,0.4498,0.4515,0.4489,0.4579,0.4557,0.4564,0.4566,0.4573,0.4579,0.4573,0.4473,0,0,0,0,0,0.4235,0.427,0.4298,0.4345,0.4359,0.4377,0.4398,0.4402,0.4431,0.4442,0.4463,0.4492,0.4528,0.4551,0.4586,0.4646,0.4653,0.4671,0.4677,0.4681,0.4687,0.4719,0.4727,0.4639,0.4639,0.4639,0,0,0.4257,0.4279,0.4301,0.4349,0.437,0.4406,0.4387,0.4426,0.4453,0.4449,0.4499,0.4515,0.4548,0.4603,0.4629,0.4619,0.4713,0.4686,0.469,0.4693,0.4723,0.4732,0.4739,0.4642,0.4641,0.4641,0,0,0.4314,0.4335,0.4376,0.4397,0.4429,0.4441,0.4451,0.4482,0.4492,0.4543,0.454,0.4572,0.4634,0.4657,0.4677,0.4741,0.4738,0.4753,0.4782,0.4813,0.4819,0.4826,0.4848,0.4856,0.4758,0.4758,0.4758,0,0.4337,0.439,0.4398,0.4437,0.4458,0.4455,0.4497,0.4518,0.456,0.4575,0.4562,0.4639,0.4661,0.4721,0.4737,0.4753,0.4765,0.4749,0.4818,0.4824,0.483,0.4851,0.486,0.476,0.476,0.4759,0.4759,0,0.4417,0.4454,0.4483,0.4522,0.4547,0.4588,0.4602,0.4626,0.4628,0.4641,0.4692,0.4717,0.4756,0.4771,0.4775,0.4832,0.4825,0.4815,0.4794,0.484,0.486,0.4868,0.4762,0.4761,0.4761,0.476,0,0,0.4486,0.4528,0.4539,0.4556,0.4591,0.462,0.466,0.4697,0.4717,0.4746,0.478,0.4832,0.4823,0.4845,0.4851,0.4878,0.4926,0.4865,0.4866,0.4875,0.4991,0.4997,0.5007,0.4924,0.4926,0.4927,0.4988,0,0.4546,0.4617,0.4624,0.4687,0.4721,0.4718,0.4753,0.4778,0.4791,0.4822,0.4836,0.4873,0.4858,0.4871,0.4898,0.4915,0.495,0.4911,0.4956,0.4957,0.4947,0.5018,0.5025,0.5081,0.4996,0.4997,0.4998,0,0.4626,0.4656,0.4721,0.475,0.4765,0.4796,0.483,0.486,0.4888,0.4896,0.492,0.4922,0.4963,0.494,0.4997,0.497,0.4989,0.5,0.5003,0.5007,0.498,0.5023,0.5099,0.5107,0.5011,0.501,0.5009,0,0.4669,0.4726,0.4772,0.4787,0.4822,0.4844,0.4859,0.4886,0.4908,0.4938,0.4952,0.4987,0.5006,0.5033,0.5045,0.5027,0.5101,0.5079,0.5108,0.5108,0.5124,0.5123,0.5204,0.5137,0.5137,0.5137,0.5137,0,0.4735,0.4775,0.4792,0.482,0.4865,0.4874,0.4918,0.4933,0.4956,0.4988,0.4988,0.5017,0.503,0.5062,0.5071,0.5117,0.5126,0.5133,0.5135,0.5133,0.5132,0.5146,0.5142,0.5139,0.5139,0.5138,0.5138,0,0.4791,0.4804,0.4854,0.4882,0.489,0.4922,0.4946,0.4974,0.4986,0.5026,0.5036,0.5055,0.5092,0.5106,0.5152,0.5158,0.5211,0.521,0.5201,0.5201,0.523,0.5227,0.5322,0.5334,0.526,0.5261,0.5261,0,0.4832,0.4863,0.4894,0.4914,0.493,0.4964,0.4985,0.4995,0.5017,0.5051,0.5075,0.5111,0.5141,0.5201,0.522,0.5255,0.5254,0.5285,0.5259,0.5256,0.5254,0.5252,0.5254,0.529,0.529,0.5291,0.5292,0,0.4903,0.4907,0.4938,0.4971,0.4996,0.5023,0.5049,0.5066,0.5079,0.5105,0.5142,0.5165,0.5211,0.5248,0.5283,0.53,0.5298,0.5299,0.5308,0.5306,0.5299,0.5302,0.5213,0.5297,0.5297,0.5296,0.5296,0.5296,0.4952,0.4979,0.5004,0.5039,0.5059,0.5082,0.5109,0.5124,0.5156,0.5193,0.5197,0.5237,0.5264,0.5311,0.5329,0.5361,0.5353,0.5366,0.5369,0.5372,0.5373,0.5294,0.5368,0.5368,0.5368,0.5368,0.5367,0,0.5022,0.5039,0.507,0.5105,0.5132,0.5127,0.5155,0.5178,0.5213,0.5238,0.5266,0.5309,0.5344,0.5365,0.5401,0.5422,0.5422,0.5431,0.5429,0.5433,0.5379,0.5368,0.543,0.543,0.543,0.543,0.543,0.543,0.5062,0.5107,0.5114,0.5168,0.5184,0.5223,0.5239,0.5261,0.5281,0.5328,0.5357,0.537,0.5393,0.543,0.5462,0.5467,0.548,0.549,0.5494,0.5443,0.5437,0.5431,0.542,0.5493,0.5493,0.5545,0.5546,0.5546]},{"header":{"parameterUnit":"m.s-1","parameterCategory":1,"la1":30.2991,"la2":30.254,"lo1":-89.0895,"lo2":-89.0444,"dy":0.0017,"dx":0.0017,"nx":28,"ny":28,"refTime":"2024-06-01T09:00:00:Z","depth":0,"parameterNumber":3,"parameterNumberName":"V-component_of_WINDS"},"data":[0,0,0,0,0,0,0,0,0,0,0,0,0,0,0,0,0,0,0,0,0,0,0,0,0,0,0,0,0,0,0,0,0,0,0,0,0,0,0,0,0,0,0,0,0,0,0,0,0,0,0,0,0,0,0,0,0,0,8.3973,8.3974,0,8.4018,8.4019,8.4019,8.3917,8.3913,8.391,8.3907,8.3947,8.3951,8.3955,0,0,0,0,0,0,0,0,0,0,0,0,0,8.3791,8.3795,8.3973,8.3974,8.3974,8.4018,8.4019,8.4019,8.3917,8.3913,8.3909,8.3906,8.3945,8.395,8.3955,0,0,0,0,0,0,0,0,0,0,0,0,0,8.3857,8.3797,8.3973,8.3929,8.3925,8.4018,8.4019,8.4019,8.3918,8.3913,8.3908,8.3904,8.3944,8.395,8.3956,8.4091,0,0,8.3974,8.3977,0,0,0,0,0,0,0,0,8.3853,8.3863,8.3935,8.3932,8.3928,8.3957,8.3969,8.4043,8.3919,8.3921,8.3907,8.3901,8.3954,8.3958,8.3977,8.4093,8.4095,8.3975,8.3979,8.3981,8.3983,0,0,0,0,0,0,0,8.3849,8.3861,8.399,8.3936,8.3932,8.3904,8.3908,8.3983,8.3964,8.392,8.3913,8.392,8.3951,8.3972,8.3978,8.4095,8.3975,8.398,8.3984,8.3986,8.4323,8.4328,0,0,0,0,0,0,8.3851,8.3858,8.3989,8.3992,8.3878,8.3912,8.3916,8.3952,8.3963,8.396,8.3924,8.3915,8.3964,8.3971,8.3979,8.4137,8.3981,8.3987,8.399,8.4318,8.4324,8.433,0,0,0,0,0,0,8.3847,8.3864,8.3987,8.3923,8.3937,8.392,8.3962,8.3956,8.3977,8.3966,8.3961,8.395,8.396,8.397,8.4064,8.4137,8.399,8.3995,8.4312,8.432,8.4327,8.4456,0,0,0,0,0,0,8.3843,8.3863,8.3916,8.3925,8.3941,8.4075,8.3966,8.396,8.3989,8.3977,8.3988,8.3985,8.3957,8.4056,8.407,8.4143,8.4,8.4305,8.4315,8.4325,8.4445,8.4467,8.4486,0,0,0,0,0,8.3836,8.3949,8.3919,8.3935,8.4007,8.4079,8.4087,8.4055,8.3995,8.4047,8.4039,8.3985,8.4127,8.4066,8.4082,8.4157,8.43,8.4312,8.4324,8.4436,8.4463,8.4486,0,0,0,0,0,0,8.3946,8.3949,8.3916,8.4036,8.4058,8.4062,8.4126,8.4084,8.4122,8.411,8.4065,8.4068,8.4171,8.4173,8.4105,8.4288,8.4203,8.4219,8.4283,8.4309,8.4329,8.4325,8.4005,0,0,0,0,0,8.3985,8.4046,8.4044,8.4149,8.4163,8.4143,8.4173,8.4146,8.4166,8.4175,8.4174,8.4194,8.4243,8.4276,8.4321,8.4445,8.4445,8.4505,8.4526,8.4543,8.4556,8.4621,8.4647,8.4369,8.4369,8.4369,0,0,8.4064,8.4073,8.4114,8.4172,8.4186,8.4247,8.4151,8.422,8.4265,8.4184,8.4273,8.4274,8.4293,8.4404,8.4452,8.4409,8.4633,8.4558,8.4571,8.4575,8.4636,8.4662,8.4685,8.4377,8.4375,8.4374,0,0,8.424,8.4254,8.4343,8.436,8.4383,8.437,8.4391,8.4402,8.4399,8.4489,8.443,8.4481,8.4567,8.4583,8.4602,8.4785,8.4736,8.4801,8.4907,8.4971,8.4993,8.5012,8.5076,8.51,8.4814,8.4815,8.4815,0,8.4334,8.4427,8.4393,8.4467,8.4493,8.4426,8.4514,8.4531,8.4568,8.4586,8.4538,8.4645,8.4653,8.4765,8.481,8.4829,8.485,8.4798,8.4993,8.5012,8.5029,8.509,8.5114,8.4822,8.4821,8.4821,8.482,0,8.4542,8.4607,8.4675,8.4715,8.4749,8.483,8.4806,8.4844,8.4815,8.4805,8.4896,8.4904,8.4949,8.4974,8.4945,8.5082,8.5055,8.5001,8.4914,8.5064,8.512,8.5143,8.4833,8.483,8.4828,8.4826,0,0,8.4786,8.4807,8.4833,8.4849,8.4871,8.4919,8.4996,8.5043,8.5075,8.5103,8.5165,8.524,8.519,8.5212,8.5184,8.5241,8.5384,8.518,8.5179,8.5216,8.5534,8.5573,8.5601,8.5352,8.5356,8.536,8.5532,0,8.4959,8.5094,8.5066,8.5197,8.5256,8.5193,8.526,8.5279,8.5273,8.532,8.5312,8.5365,8.5297,8.5309,8.5363,8.5355,8.5447,8.5343,8.5407,8.541,8.5403,8.563,8.5672,8.5833,8.5553,8.5557,8.556,0,8.5178,8.5217,8.5355,8.5367,8.539,8.5451,8.5491,8.5538,8.5558,8.5549,8.5575,8.5536,8.561,8.5524,8.5625,8.5555,8.5579,8.558,8.5585,8.5588,8.5493,8.5638,8.5884,8.5908,8.5594,8.5591,8.5589,0,8.5341,8.5427,8.552,8.5537,8.5554,8.5598,8.5606,8.5622,8.5652,8.5686,8.5704,8.5746,8.5768,8.58,8.5773,8.5713,8.5877,8.579,8.587,8.5871,8.5906,8.5904,8.6159,8.5925,8.5925,8.5925,8.5924,0,8.5536,8.5622,8.5594,8.5651,8.5745,8.5712,8.5805,8.5806,8.5821,8.5876,8.5824,8.5875,8.5837,8.5886,8.5865,8.595,8.5961,8.5954,8.5947,8.5958,8.5959,8.5972,8.596,8.5931,8.5929,8.5928,8.5927,0,8.5732,8.5717,8.5815,8.5824,8.5828,8.5897,8.5903,8.5956,8.5946,8.6016,8.603,8.6015,8.6069,8.6046,8.6102,8.6088,8.6197,8.6176,8.6191,8.6185,8.6267,8.6259,8.6538,8.6572,8.6318,8.6321,8.6323,0,8.5857,8.5923,8.5939,8.5974,8.5987,8.6042,8.6073,8.6042,8.6075,8.6103,8.6152,8.6202,8.624,8.6329,8.6321,8.6364,8.6342,8.6437,8.6348,8.6357,8.6342,8.6338,8.6343,8.6454,8.6457,8.646,8.6462,0,8.6079,8.6069,8.6116,8.6161,8.62,8.6233,8.6261,8.6291,8.6261,8.6301,8.6357,8.6387,8.6446,8.6496,8.6534,8.654,8.6496,8.649,8.6511,8.6522,8.6527,8.6524,8.6238,8.6483,8.6481,8.648,8.6479,8.6478,8.6242,8.6297,8.6318,8.6372,8.6391,8.6419,8.6468,8.6466,8.6513,8.656,8.6538,8.6603,8.662,8.6667,8.668,8.6728,8.669,8.6721,8.6728,8.6736,8.6746,8.6522,8.6735,8.6734,8.6734,8.6733,8.6733,0,8.646,8.6471,8.6522,8.6564,8.6606,8.6564,8.6593,8.6631,8.6689,8.671,8.675,8.6814,8.6862,8.6859,8.6903,8.6942,8.6923,8.6955,8.695,8.6952,8.6778,8.6755,8.6969,8.6969,8.6969,8.6969,8.6969,8.6969,8.6579,8.6669,8.6662,8.676,8.6769,8.6834,8.6855,8.6879,8.6896,8.6971,8.7011,8.701,8.7021,8.7065,8.7107,8.7105,8.7122,8.7162,8.7152,8.6988,8.6965,8.6942,8.692,8.7166,8.7167,8.7322,8.7323,8.7324]}]]